Powrót do katalogu

COSMOS 1818 COOLANT

LostLEO
NORAD 34177·DEBRIS·🇷🇺 Russia

Wystrzelony Feb 1, 1987 z Baikonur Cosmodrome

Loading…

Następne Przeloty (najbliższe 24 godziny)

TLE

NieaktualneSource: Space-Track

Epoka: May 29, 2014, 03:01 UTC

1 34177U 87011H   14149.12619162 +.00001209 +00000-0 +47948-3 0  9993
2 34177 065.0055 332.5521 0015337 233.9900 122.5452 14.32730676297100

Śledź COSMOS 1818 COOLANT w czasie rzeczywistym z AllMySat

Download on the App Store